2021-014B (47692 NORAD) Tracking and Keplerian Element Data

This shows tracking and keplerian element data for the satellite.

Feedback or suggestion? Click here.




ElementValue
Catalog47692
Name2021-014B
Epoch Orbit600
Epoch Day99.79941607
Epoch Year2021
RAAN23.0932
Inclination63.4121
Eccentricity0.0006384
Argument of Perigee286.059
Mean Anonmoly73.9736
Mean Motion13.43778128
Decay Rate-9E-07
L11 47692U 21014B 21099.79941607 -.00000090 00000-0 00000-0 0 9990
L22 47692 63.4121 23.0932 0006384 286.0590 73.9736 13.43778128 6002

Live tracking and technical data element details for 2021-014B (NORAD 47692). 2021-014B can be tracked NOW for your location showing map with azimuth and elevation plus other details from your city location.

Track the satellite on the map from your city or location and see movement details for azimuth, elevation, latitude, longitude, range, height, and movement on the map or in text.







IsCatalogInMostPopularTable: catalog: 47692, numindb: 13
Update: records affected: 1



GetName: 47692 2021-014B

Hit Count: updated at: Sat, 10 Apr 2021 19:28:17 GMT